�N����,����,�~����,�C��,���x,�C��,����,���ϕ���,�ő�u�ԕ���,�ő厞����,���˗�,�I�_���x,�n�����x,�ő啗���N��,DTYPE
"17/10/06","00:10",0.0,18.3,76.3,1019.9,342.1,0.5,1.0,287.3,0.00,14.1,19.7,"00:00:08",1
"17/10/06","00:20",0.0,18.3,75.6,1020.1,0.3,0.7,1.6,37.1,0.00,14.0,19.7,"00:19:52",1
"17/10/06","00:30",0.0,18.5,74.9,1019.7,356.2,0.8,2.4,307.1,0.00,14.0,19.5,"00:29:12",1
"17/10/06","00:40",0.0,18.5,74.6,1019.4,23.6,0.8,2.1,111.2,0.00,13.9,19.5,"00:37:28",1
"17/10/06","00:50",0.0,18.4,74.9,1019.4,2.6,0.5,1.6,335.5,0.00,13.9,19.5,"00:43:04",1
"17/10/06","01:00",0.0,18.3,75.2,1019.4,32.0,0.6,1.7,126.9,0.00,13.9,19.5,"00:53:12",1
"17/10/06","01:10",0.0,18.3,75.4,1019.4,352.7,0.6,1.3,18.6,0.00,13.9,19.4,"01:03:36",1
"17/10/06","01:20",0.0,18.3,75.2,1019.4,348.5,0.6,1.4,347.3,0.00,13.9,19.4,"01:10:08",1
"17/10/06","01:30",0.0,18.2,75.4,1019.4,20.7,0.7,1.6,117.2,0.00,13.8,19.5,"01:28:16",1
"17/10/06","01:40",0.0,18.3,75.2,1019.2,7.6,0.7,1.7,108.7,0.00,13.9,19.4,"01:37:52",1
"17/10/06","01:50",0.0,18.4,74.8,1019.2,11.0,0.8,2.0,126.1,0.00,13.9,19.2,"01:41:04",1
"17/10/06","02:00",0.0,18.3,75.0,1019.0,2.7,0.6,1.6,16.8,0.00,13.8,19.4,"01:54:00",1
"17/10/06","02:10",0.0,18.1,75.3,1018.5,328.1,0.6,2.0,102.7,0.00,13.7,19.3,"02:09:20",1
"17/10/06","02:20",0.0,18.2,75.2,1018.7,38.2,0.8,2.1,1.9,0.00,13.8,19.3,"02:13:52",1
"17/10/06","02:30",0.0,18.2,74.9,1018.5,354.8,0.7,2.2,25.5,0.00,13.7,19.3,"02:26:32",1
"17/10/06","02:40",0.0,18.3,75.1,1018.7,18.4,0.7,1.9,67.7,0.00,13.9,19.3,"02:32:00",1
"17/10/06","02:50",0.0,18.3,74.7,1018.7,28.7,0.8,2.1,94.8,0.00,13.8,19.3,"02:41:04",1
"17/10/06","03:00",0.0,18.3,74.8,1018.7,26.7,0.7,2.7,71.8,0.00,13.8,19.3,"02:51:52",1
"17/10/06","03:10",0.0,18.2,75.2,1018.7,2.7,0.8,2.0,99.9,0.00,13.8,19.4,"03:07:44",1
"17/10/06","03:20",0.0,18.1,75.3,1018.5,336.5,0.6,1.9,346.7,0.00,13.7,19.4,"03:10:24",1
"17/10/06","03:30",0.0,18.2,75.1,1018.5,10.1,0.8,2.2,328.0,0.00,13.8,19.4,"03:26:16",1
"17/10/06","03:40",0.0,18.3,74.5,1018.5,31.9,0.8,2.2,346.1,0.00,13.7,19.3,"03:37:12",1
"17/10/06","03:50",0.0,18.4,74.4,1018.2,36.7,1.0,2.4,54.1,0.00,13.8,19.3,"03:46:24",1
"17/10/06","04:00",0.0,18.4,74.2,1018.2,51.3,1.0,2.2,101.0,0.00,13.8,19.4,"03:58:40",1
"17/10/06","04:10",0.0,18.4,74.1,1018.5,28.5,1.0,2.4,97.6,0.00,13.7,19.4,"04:06:08",1
"17/10/06","04:20",0.0,18.4,74.4,1018.2,37.1,0.8,1.9,22.5,0.00,13.8,19.2,"04:16:40",1
"17/10/06","04:30",0.0,18.4,74.2,1018.2,49.7,0.8,2.0,81.8,0.00,13.8,19.2,"04:24:08",1
"17/10/06","04:40",0.0,18.4,74.1,1018.5,31.7,0.7,2.0,96.3,0.00,13.7,19.2,"04:31:36",1
"17/10/06","04:50",0.0,18.3,74.2,1018.5,47.9,0.8,2.2,119.5,0.00,13.7,18.9,"04:47:44",1
"17/10/06","05:00",0.0,18.3,74.3,1018.2,62.1,0.7,2.1,76.7,0.00,13.7,19.3,"04:59:52",1
"17/10/06","05:10",0.0,18.4,74.1,1018.5,28.0,0.8,1.9,9.4,0.00,13.7,19.1,"05:04:48",1
"17/10/06","05:20",0.0,18.4,73.8,1018.5,30.0,1.0,2.5,22.8,0.00,13.7,19.1,"05:11:28",1
"17/10/06","05:30",0.0,18.4,73.2,1018.7,43.5,1.0,3.5,67.9,0.00,13.6,19.2,"05:28:16",1
"17/10/06","05:40",0.0,18.4,72.1,1018.5,51.5,1.2,3.4,99.2,0.00,13.3,19.1,"05:38:32",1
"17/10/06","05:50",0.0,18.5,72.1,1019.0,28.5,1.0,1.9,69.7,0.00,13.4,19.1,"05:40:24",1
"17/10/06","06:00",0.0,18.5,71.8,1019.2,37.8,1.2,2.6,25.4,0.00,13.4,18.9,"05:57:44",1
"17/10/06","06:10",0.0,18.6,71.4,1019.7,44.4,1.1,2.6,65.5,0.00,13.4,19.2,"06:07:20",1
"17/10/06","06:20",0.0,18.6,71.7,1018.7,54.4,1.2,2.5,101.8,0.00,13.4,19.1,"06:14:16",1
"17/10/06","06:30",0.0,18.6,71.7,1019.0,31.0,1.1,3.3,64.1,0.00,13.4,19.1,"06:22:00",1
"17/10/06","06:40",0.0,18.7,71.3,1019.0,44.8,1.3,3.3,43.4,0.00,13.4,19.1,"06:30:24",1
"17/10/06","06:50",0.0,18.8,70.9,1019.4,41.6,1.3,5.6,1.6,0.00,13.5,19.0,"06:45:20",1
"17/10/06","07:00",0.0,18.9,70.7,1019.0,55.3,1.3,3.1,121.5,0.00,13.5,19.1,"06:58:40",1
"17/10/06","07:10",0.0,18.8,71.1,1019.2,53.7,1.1,3.2,43.9,0.00,13.5,19.0,"07:09:28",1
"17/10/06","07:20",0.0,18.8,70.9,1019.0,41.0,1.1,2.9,78.1,0.00,13.5,19.1,"07:14:40",1
"17/10/06","07:30",0.0,18.9,70.9,1018.7,37.5,1.5,3.2,43.4,0.01,13.5,19.0,"07:21:44",1
"17/10/06","07:40",0.0,19.0,70.4,1019.2,51.2,1.3,3.5,33.8,0.01,13.5,19.1,"07:30:24",1
"17/10/06","07:50",0.0,19.1,69.4,1019.0,41.2,1.3,3.2,85.9,0.01,13.4,19.0,"07:43:20",1
"17/10/06","08:00",0.0,19.2,68.6,1019.2,37.1,1.2,3.5,116.8,0.02,13.3,19.0,"07:51:04",1
"17/10/06","08:10",0.0,19.2,68.6,1019.0,44.3,1.3,3.2,98.2,0.02,13.3,19.2,"08:00:24",1
"17/10/06","08:20",0.0,19.2,67.9,1019.2,49.4,1.3,3.1,106.9,0.00,13.2,19.0,"08:17:36",1
"17/10/06","08:30",0.0,19.1,67.8,1019.2,43.3,1.3,2.9,14.6,0.00,13.1,19.0,"08:23:52",1
"17/10/06","08:40",0.0,19.2,67.6,1018.7,43.0,1.3,2.6,113.5,0.00,13.1,19.1,"08:38:00",1
"17/10/06","08:50",0.0,19.3,67.0,1019.2,40.9,1.3,3.1,59.8,0.01,13.1,19.3,"08:43:20",1
"17/10/06","09:00",0.0,19.3,66.5,1018.5,76.5,1.6,3.7,92.5,0.01,13.0,19.1,"08:54:56",1
"17/10/06","09:10",0.0,19.4,66.4,1018.7,81.0,1.3,3.7,114.7,0.02,13.0,19.0,"09:04:56",1
"17/10/06","09:20",0.0,19.4,66.6,1018.5,61.4,1.0,2.6,94.8,0.03,13.1,19.0,"09:15:52",1
"17/10/06","09:30",0.0,19.6,66.9,1018.5,92.2,1.1,3.9,183.5,0.04,13.3,19.2,"09:29:12",1
"17/10/06","09:40",0.0,19.6,66.1,1018.5,70.5,1.6,4.1,93.6,0.04,13.1,19.1,"09:33:04",1
"17/10/06","09:50",0.0,19.5,68.1,1019.0,70.7,1.3,3.4,119.1,0.04,13.5,19.2,"09:40:40",1
"17/10/06","10:00",0.0,18.9,70.6,1018.7,49.1,1.3,3.7,8.1,0.03,13.5,19.1,"09:54:48",1
"17/10/06","10:10",0.2,18.5,72.7,1019.0,52.8,1.2,2.8,100.4,0.02,13.6,19.2,"10:02:08",1
"17/10/06","10:20",0.0,18.2,75.8,1018.5,353.6,1.1,3.5,342.6,0.01,13.9,19.1,"10:13:44",1
"17/10/06","10:30",0.6,17.8,79.1,1018.5,349.4,1.0,1.8,356.7,0.02,14.2,19.2,"10:26:32",1
"17/10/06","10:40",0.4,17.4,81.4,1018.5,354.8,1.1,2.1,333.3,0.03,14.2,19.2,"10:34:00",1
"17/10/06","10:50",0.2,17.3,82.9,1018.0,359.3,0.8,1.9,72.6,0.05,14.4,19.2,"10:49:04",1
"17/10/06","11:00",0.2,17.3,83.4,1018.5,332.0,1.3,2.2,333.5,0.04,14.5,18.9,"10:57:22",1
"17/10/06","11:10",0.2,17.1,84.8,1018.2,355.6,1.1,2.4,2.7,0.01,14.6,19.2,"11:03:44",1
"17/10/06","11:20",0.2,17.1,85.5,1018.0,25.8,1.0,3.3,2.7,0.06,14.7,19.2,"11:17:20",1
"17/10/06","11:30",0.2,16.9,85.9,1018.0,355.9,0.8,2.0,323.2,0.01,14.6,19.0,"11:25:44",1
"17/10/06","11:40",0.2,16.8,86.5,1017.5,333.4,0.8,2.4,23.5,0.03,14.6,19.2,"11:39:36",1
"17/10/06","11:50",0.2,17.0,86.8,1017.3,314.0,0.7,2.4,341.7,0.05,14.8,19.5,"11:44:56",1
"17/10/06","12:00",0.4,16.9,88.0,1017.5,304.2,0.8,1.6,307.0,0.02,14.9,19.2,"11:51:28",1
"17/10/06","12:10",0.4,16.7,88.8,1017.3,311.7,1.0,1.7,301.6,0.02,14.9,19.2,"12:03:44",1
"17/10/06","12:20",0.2,16.6,89.5,1017.1,288.8,0.8,1.8,342.6,0.02,14.9,19.2,"12:15:04",1
"17/10/06","12:30",0.4,16.5,90.3,1017.1,279.7,1.2,1.9,315.0,0.01,14.9,19.1,"12:22:10",1
"17/10/06","12:40",0.2,16.5,90.7,1016.8,229.2,0.6,1.6,130.4,0.01,15.0,19.1,"12:30:40",1
"17/10/06","12:50",0.4,16.6,90.8,1016.6,286.5,0.7,1.9,336.6,0.01,15.1,19.0,"12:48:52",1
"17/10/06","13:00",0.2,16.6,91.0,1016.1,60.5,0.6,2.2,33.6,0.02,15.2,19.1,"12:57:04",1
"17/10/06","13:10",0.4,16.6,91.0,1016.6,308.0,0.6,1.2,6.7,0.01,15.2,19.0,"13:04:40",1
"17/10/06","13:20",0.4,16.6,91.1,1015.9,245.2,0.8,1.7,220.8,0.01,15.2,19.2,"13:16:22",1
"17/10/06","13:30",0.4,16.6,91.0,1015.6,13.6,0.7,1.6,333.0,0.00,15.2,19.1,"13:23:52",1
"17/10/06","13:40",0.4,16.7,90.7,1015.2,20.2,0.6,2.0,344.4,0.01,15.2,19.2,"13:34:08",1
"17/10/06","13:50",0.4,16.7,90.9,1015.6,334.3,0.6,1.6,305.0,0.00,15.2,19.1,"13:46:08",1
"17/10/06","14:00",0.2,16.6,91.2,1015.6,331.5,0.6,1.6,32.3,0.00,15.2,19.1,"13:57:36",1
"17/10/06","14:10",0.4,16.6,91.3,1015.2,14.8,0.7,1.7,37.9,0.01,15.2,19.1,"14:04:24",1
"17/10/06","14:20",0.4,16.8,91.8,1015.2,3.5,0.7,3.3,0.1,0.03,15.5,19.0,"14:10:24",1
"17/10/06","14:30",0.4,16.9,91.3,1014.9,260.3,0.3,1.2,246.5,0.03,15.5,19.0,"14:20:02",1
"17/10/06","14:40",0.4,17.0,91.8,1015.2,228.6,0.6,2.0,187.3,0.02,15.7,19.1,"14:31:12",1
"17/10/06","14:50",0.4,17.1,91.3,1015.2,269.8,0.5,1.4,304.9,0.03,15.7,18.9,"14:48:40",1
"17/10/06","15:00",0.4,17.2,91.5,1015.2,304.9,0.6,1.8,336.0,0.03,15.8,19.1,"14:58:40",1
"17/10/06","15:10",0.2,17.2,91.9,1014.9,301.8,0.5,1.2,317.9,0.01,15.9,19.2,"15:06:08",1
"17/10/06","15:20",0.4,17.2,92.3,1015.2,287.1,0.5,0.9,285.4,0.01,16.0,19.2,"15:16:32",1
"17/10/06","15:30",0.4,17.0,92.2,1014.9,29.9,0.3,1.0,111.5,0.00,15.8,19.2,"15:22:48",1
"17/10/06","15:40",0.2,16.8,91.8,1015.4,348.0,0.7,1.7,304.3,0.00,15.5,19.2,"15:33:20",1
"17/10/06","15:50",0.4,16.9,92.2,1015.4,357.7,0.8,1.9,341.7,0.00,15.7,19.1,"15:42:32",1
"17/10/06","16:00",0.2,16.7,92.0,1015.2,13.5,0.8,3.1,1.2,0.01,15.4,19.0,"15:56:40",1
"17/10/06","16:10",0.4,16.5,92.1,1014.9,40.8,1.0,2.9,50.6,0.00,15.3,19.2,"16:07:12",1
"17/10/06","16:20",0.4,16.5,91.8,1014.9,36.8,1.3,4.1,12.0,0.01,15.2,19.1,"16:10:56",1
"17/10/06","16:30",0.2,16.3,91.4,1014.9,27.6,1.6,3.6,78.8,0.01,14.9,18.8,"16:20:40",1
"17/10/06","16:40",0.4,16.1,91.3,1015.4,36.5,1.1,3.3,53.3,0.00,14.7,19.0,"16:39:20",1
"17/10/06","16:50",0.2,16.0,91.0,1015.4,29.1,1.3,4.5,357.0,0.00,14.6,18.9,"16:44:08",1
"17/10/06","17:00",0.4,15.9,90.8,1015.2,11.0,1.0,2.1,70.9,0.00,14.4,18.9,"16:54:26",1
"17/10/06","17:10",0.2,15.7,90.4,1015.2,38.4,1.8,4.9,24.1,0.00,14.2,18.9,"17:09:06",1
"17/10/06","17:20",0.4,15.7,90.4,1014.9,55.7,1.0,3.6,112.7,0.00,14.2,19.0,"17:10:08",1
"17/10/06","17:30",0.2,15.6,90.7,1015.2,48.0,1.0,2.2,61.7,0.00,14.1,18.6,"17:25:20",1
"17/10/06","17:40",0.4,15.5,90.9,1014.9,350.7,0.7,1.8,43.9,0.00,14.1,18.8,"17:35:52",1
"17/10/06","17:50",0.2,15.5,90.9,1015.2,56.8,0.8,3.2,339.7,0.00,14.1,18.8,"17:49:20",1
"17/10/06","18:00",0.2,15.5,91.0,1014.9,21.4,1.3,3.4,35.7,0.00,14.1,19.0,"17:57:52",1
"17/10/06","18:10",0.4,15.4,91.1,1014.9,25.5,1.2,4.4,25.1,0.00,14.0,18.7,"18:02:08",1
"17/10/06","18:20",0.2,15.4,91.3,1014.9,344.0,1.1,2.1,359.6,0.00,14.0,18.8,"18:12:08",1
"17/10/06","18:30",0.2,15.4,91.8,1015.2,282.8,1.2,2.0,326.2,0.00,14.1,18.7,"18:20:24",1
"17/10/06","18:40",0.2,15.3,92.3,1014.9,298.5,1.1,2.4,316.0,0.00,14.1,18.6,"18:39:34",1
"17/10/06","18:50",0.4,15.2,92.8,1015.4,322.7,1.8,3.2,332.8,0.00,14.1,18.7,"18:43:58",1
"17/10/06","19:00",0.2,15.1,93.4,1015.4,263.0,0.7,2.0,272.6,0.00,14.1,18.7,"18:56:00",1
"17/10/06","19:10",0.4,15.1,93.8,1015.4,277.1,0.6,1.3,321.3,0.00,14.1,18.5,"19:05:04",1
"17/10/06","19:20",0.4,15.2,94.3,1015.6,235.6,0.6,1.3,220.6,0.00,14.3,18.3,"19:17:20",1
"17/10/06","19:30",0.4,15.2,94.5,1014.9,271.0,0.7,1.6,335.1,0.00,14.4,18.6,"19:20:02",1
"17/10/06","19:40",0.4,15.2,94.7,1015.6,335.1,1.1,2.0,323.9,0.00,14.4,18.3,"19:38:00",1
"17/10/06","19:50",0.6,15.2,94.9,1015.6,293.4,0.8,1.4,250.6,0.00,14.4,18.6,"19:48:08",1
"17/10/06","20:00",0.4,15.1,95.1,1015.2,331.9,0.8,1.7,344.0,0.00,14.4,18.2,"19:56:48",1
"17/10/06","20:10",0.6,15.1,95.4,1014.9,309.8,0.6,1.0,324.1,0.00,14.4,18.1,"20:00:24",1
"17/10/06","20:20",0.4,15.1,95.6,1015.2,289.4,0.6,0.9,342.2,0.00,14.4,18.2,"20:10:40",1
"17/10/06","20:30",0.6,15.2,95.7,1015.2,327.1,0.3,0.8,335.4,0.00,14.6,18.2,"20:26:56",1
"17/10/06","20:40",0.4,15.2,95.9,1015.4,286.0,0.6,1.1,304.0,0.00,14.6,18.2,"20:39:52",1
"17/10/06","20:50",0.6,15.2,96.0,1015.2,329.2,0.6,1.4,322.0,0.00,14.6,18.3,"20:43:20",1
"17/10/06","21:00",0.6,15.2,96.0,1014.9,349.1,0.7,1.6,354.0,0.00,14.6,18.3,"20:54:40",1
"17/10/06","21:10",0.6,15.2,96.2,1014.7,347.3,1.1,2.1,26.4,0.00,14.6,18.3,"21:09:04",1
"17/10/06","21:20",0.4,15.3,96.4,1014.2,350.8,0.8,1.4,333.0,0.00,14.8,18.2,"21:16:16",1
"17/10/06","21:30",0.6,15.3,96.5,1014.2,320.6,0.7,1.2,333.3,0.00,14.8,18.2,"21:21:04",1
"17/10/06","21:40",0.6,15.3,96.5,1014.0,305.9,0.8,1.7,340.7,0.00,14.8,18.3,"21:38:56",1
"17/10/06","21:50",0.4,15.4,96.7,1013.5,291.1,0.8,2.7,322.4,0.00,14.9,18.4,"21:48:00",1
"17/10/06","22:00",0.6,15.5,96.8,1013.8,318.6,1.0,2.2,344.4,0.00,15.0,18.2,"21:54:48",1
"17/10/06","22:10",0.6,15.6,96.9,1013.5,297.7,0.7,1.4,308.7,0.00,15.1,18.2,"22:00:02",1
"17/10/06","22:20",0.6,15.9,96.9,1013.5,333.7,0.8,1.8,359.7,0.00,15.4,18.4,"22:17:28",1
"17/10/06","22:30",0.6,16.0,96.9,1013.3,296.0,0.7,1.3,328.5,0.00,15.5,18.3,"22:29:36",1
"17/10/06","22:40",0.4,16.1,96.9,1013.3,324.4,0.8,1.2,317.6,0.00,15.6,18.4,"22:30:24",1
"17/10/06","22:50",0.6,16.2,96.9,1013.3,316.6,0.8,1.9,337.1,0.00,15.7,18.3,"22:48:32",1
"17/10/06","23:00",0.6,16.3,96.9,1012.8,278.9,0.7,1.4,325.8,0.00,15.8,18.3,"22:58:16",1
"17/10/06","23:10",0.4,16.4,97.0,1012.8,321.9,1.0,1.9,347.6,0.00,16.0,18.3,"23:08:32",1
"17/10/06","23:20",0.6,16.5,97.0,1012.6,331.7,1.2,2.2,306.9,0.00,16.1,18.3,"23:14:32",1
"17/10/06","23:30",0.4,16.6,96.8,1012.6,299.5,1.8,4.1,337.5,0.00,16.1,18.4,"23:25:52",1
"17/10/06","23:40",0.6,16.7,96.7,1012.3,276.6,1.1,1.8,243.3,0.00,16.2,18.3,"23:39:36",1
"17/10/06","23:50",0.4,16.7,96.6,1012.6,291.0,1.0,1.8,323.8,0.00,16.2,18.4,"23:43:36",1
"17/10/06","24:00",0.4,16.8,96.6,1012.8,297.4,0.7,1.9,254.6,0.00,16.3,18.3,"23:51:44",1
